User: anonymous   Login
Location: Unspecified
(0.0000°N, 0.0000°E)
Time: 02:48:34
(UTC+00:00)
Language:

METEOR-M - Orbit

View from above orbital plane
View from above orbital plane
View from above satellite
View from above satellite

Ground track
Ground track

The orbit data is extracted from the following two-line orbital elements,

1 35865U 09049A   15062.59410632  .00000082  00000-0  56135-4 0  9997
2 35865 098.5145 106.6520 0003519 070.0449 290.1100 14.21995631283202
Epoch (UTC): 03 March 2015 14:15:30
Eccentricity: 0.0003519
inclination: 98.5145°
perigee height: 816 km
apogee height: 821 km
right ascension of ascending node: 106.6520°
argument of perigee: 70.0449°
revolutions per day: 14.21995631
mean anomaly at epoch: 290.1100°
orbit number at epoch: 28320

The dashed part of the orbit path shows where the satellite is in the earth's shadow,  

DLR